Time,TemperatureF,DewpointF,PressureIn,WindDirection,WindDirectionDegrees,WindSpeedMPH,WindSpeedGustMPH,Humidity,HourlyPrecipIn,Conditions,Clouds,dailyrainin,SoftwareType,DateUTC
2013-01-14 00:00:00,62.1,58.5,30.24,WSW,249,0.0,5.0,88,0.00,,,0.00,VWS V14.01,2013-01-14 05:00:00,
2013-01-14 00:04:00,61.9,58.3,30.24,WSW,250,0.0,5.0,88,0.00,,,0.00,VWS V14.01,2013-01-14 05:04:00,
2013-01-14 00:08:00,61.8,58.5,30.25,WSW,250,1.0,1.0,89,0.00,,,0.00,VWS V14.01,2013-01-14 05:08:00,
2013-01-14 00:12:00,61.7,58.4,30.24,SSW,205,0.0,3.0,89,0.00,,,0.00,VWS V14.01,2013-01-14 05:12:00,
2013-01-14 00:17:00,61.7,58.7,30.25,SSW,202,0.0,4.0,90,0.00,,,0.00,VWS V14.01,2013-01-14 05:17:00,
2013-01-14 00:23:00,61.7,58.7,30.24,SSE,157,0.0,4.0,90,0.00,,,0.00,VWS V14.01,2013-01-14 05:23:00,
2013-01-14 00:29:00,61.9,59.2,30.24,SSW,194,0.0,6.0,91,0.00,,,0.00,VWS V14.01,2013-01-14 05:29:00,
2013-01-14 00:30:00,62.0,59.0,30.24,WSW,240,6.0,6.0,90,0.00,,,0.00,VWS V14.01,2013-01-14 05:30:00,
2013-01-14 00:34:00,62.0,59.0,30.24,WSW,240,6.0,6.0,90,0.00,,,0.00,VWS V14.01,2013-01-14 05:34:00,
2013-01-14 00:40:00,62.1,59.1,30.23,SW,215,1.0,6.0,90,0.00,,,0.00,VWS V14.01,2013-01-14 05:40:00,
2013-01-14 00:46:00,62.1,59.1,30.24,SW,216,0.0,6.0,90,0.00,,,0.00,VWS V14.01,2013-01-14 05:46:00,
2013-01-14 00:51:00,62.1,59.1,30.24,SSW,205,0.0,6.0,90,0.00,,,0.00,VWS V14.01,2013-01-14 05:51:00,
2013-01-14 00:57:00,62.3,59.6,30.24,SSW,200,1.0,6.0,91,0.00,,,0.00,VWS V14.01,2013-01-14 05:57:00,
2013-01-14 01:00:00,62.3,59.3,30.24,SSW,213,0.0,6.0,90,0.00,,,0.00,VWS V14.01,2013-01-14 06:00:00,
2013-01-14 01:03:00,62.4,59.4,30.24,SW,223,0.0,6.0,90,0.00,,,0.00,VWS V14.01,2013-01-14 06:03:00,
2013-01-14 01:09:00,62.3,59.3,30.24,SW,221,1.0,3.0,90,0.00,,,0.00,VWS V14.01,2013-01-14 06:09:00,
2013-01-14 01:15:00,62.2,59.2,30.24,SW,225,0.0,3.0,90,0.00,,,0.00,VWS V14.01,2013-01-14 06:15:00,
2013-01-14 01:21:00,62.1,59.1,30.24,SW,219,0.0,3.0,90,0.00,,,0.00,VWS V14.01,2013-01-14 06:21:00,
2013-01-14 01:27:00,62.0,59.0,30.24,SW,218,2.0,4.0,90,0.00,,,0.00,VWS V14.01,2013-01-14 06:27:00,
2013-01-14 01:30:00,62.0,59.0,30.24,SSW,211,0.0,4.0,90,0.00,,,0.00,VWS V14.01,2013-01-14 06:30:00,
2013-01-14 01:33:00,61.9,58.9,30.24,SSW,212,4.0,4.0,90,0.00,,,0.00,VWS V14.01,2013-01-14 06:33:00,
2013-01-14 01:38:00,61.9,58.9,30.25,SW,229,0.0,5.0,90,0.00,,,0.00,VWS V14.01,2013-01-14 06:38:00,
2013-01-14 01:44:00,61.8,58.8,30.24,SW,221,0.0,5.0,90,0.00,,,0.00,VWS V14.01,2013-01-14 06:44:00,
2013-01-14 01:50:00,61.7,58.7,30.25,SW,221,0.0,5.0,90,0.00,,,0.00,VWS V14.01,2013-01-14 06:50:00,
2013-01-14 01:56:00,61.4,58.1,30.25,SW,221,0.0,5.0,89,0.00,,,0.00,VWS V14.01,2013-01-14 06:56:00,
2013-01-14 02:00:00,61.2,58.2,30.25,SSW,213,0.0,5.0,90,0.00,,,0.00,VWS V14.01,2013-01-14 07:00:00,
2013-01-14 02:02:00,61.2,58.2,30.25,SSW,211,2.0,5.0,90,0.00,,,0.00,VWS V14.01,2013-01-14 07:02:00,
2013-01-14 02:07:00,61.0,58.0,30.25,SSW,211,1.0,2.0,90,0.00,,,0.00,VWS V14.01,2013-01-14 07:07:00,
2013-01-14 02:13:00,60.8,57.8,30.26,SSW,211,0.0,2.0,90,0.00,,,0.00,VWS V14.01,2013-01-14 07:13:00,
2013-01-14 02:19:00,60.5,57.6,30.26,SSW,211,0.0,2.0,90,0.00,,,0.00,VWS V14.01,2013-01-14 07:19:00,
2013-01-14 02:25:00,60.3,57.4,30.26,SSW,212,0.0,2.0,90,0.00,,,0.00,VWS V14.01,2013-01-14 07:25:00,
2013-01-14 02:30:00,60.0,57.4,30.26,SW,222,0.0,2.0,91,0.00,,,0.00,VWS V14.01,2013-01-14 07:30:00,
2013-01-14 02:31:00,60.1,57.5,30.26,SW,223,0.0,2.0,91,0.00,,,0.00,VWS V14.01,2013-01-14 07:31:00,
2013-01-14 02:37:00,60.0,57.4,30.26,SW,222,0.0,2.0,91,0.00,,,0.00,VWS V14.01,2013-01-14 07:37:00,
2013-01-14 02:43:00,59.8,57.5,30.26,SW,223,0.0,3.0,92,0.00,,,0.00,VWS V14.01,2013-01-14 07:43:00,
2013-01-14 02:48:00,59.8,57.5,30.26,SW,215,0.0,3.0,92,0.00,,,0.00,VWS V14.01,2013-01-14 07:48:00,
2013-01-14 02:54:00,59.6,57.3,30.26,SW,215,0.0,3.0,92,0.00,,,0.00,VWS V14.01,2013-01-14 07:54:00,
2013-01-14 03:00:00,59.5,57.2,30.26,SW,215,0.0,3.0,92,0.00,,,0.00,VWS V14.01,2013-01-14 08:00:00,
2013-01-14 03:06:00,59.5,57.5,30.26,SW,215,0.0,1.0,93,0.00,,,0.00,VWS V14.01,2013-01-14 08:06:00,
2013-01-14 03:12:00,59.5,57.5,30.26,SW,216,0.0,1.0,93,0.00,,,0.00,VWS V14.01,2013-01-14 08:12:00,
2013-01-14 03:17:00,59.4,57.4,30.26,SW,215,0.0,1.0,93,0.00,,,0.00,VWS V14.01,2013-01-14 08:17:00,
2013-01-14 03:23:00,59.5,57.5,30.26,SW,236,0.0,5.0,93,0.00,,,0.00,VWS V14.01,2013-01-14 08:23:00,
2013-01-14 03:29:00,59.5,57.5,30.26,SW,236,1.0,5.0,93,0.00,,,0.00,VWS V14.01,2013-01-14 08:29:00,
2013-01-14 03:30:00,59.7,58.0,30.26,SSW,192,0.0,5.0,94,0.00,,,0.00,VWS V14.01,2013-01-14 08:30:00,
2013-01-14 03:34:00,59.7,58.0,30.26,SSW,192,0.0,5.0,94,0.00,,,0.00,VWS V14.01,2013-01-14 08:34:00,
2013-01-14 03:40:00,60.0,58.3,30.26,SW,232,0.0,7.0,94,0.00,,,0.00,VWS V14.01,2013-01-14 08:40:00,
2013-01-14 03:45:00,60.2,58.5,30.25,SW,232,0.0,7.0,94,0.00,,,0.00,VWS V14.01,2013-01-14 08:45:00,
2013-01-14 03:51:00,60.3,58.6,30.25,SSE,168,0.0,7.0,94,0.00,,,0.00,VWS V14.01,2013-01-14 08:51:00,
2013-01-14 03:57:00,60.5,58.8,30.25,SSW,204,0.0,7.0,94,0.00,,,0.00,VWS V14.01,2013-01-14 08:57:00,
2013-01-14 04:00:00,60.5,58.8,30.24,SSW,203,0.0,7.0,94,0.00,,,0.00,VWS V14.01,2013-01-14 09:00:00,
2013-01-14 04:03:00,60.5,58.8,30.24,SSW,203,0.0,7.0,94,0.00,,,0.00,VWS V14.01,2013-01-14 09:03:00,
2013-01-14 04:09:00,60.6,58.9,30.24,SSW,203,0.0,0.0,94,0.00,,,0.00,VWS V14.01,2013-01-14 09:09:00,
2013-01-14 04:15:00,60.7,59.0,30.24,SW,226,0.0,6.0,94,0.00,,,0.00,VWS V14.01,2013-01-14 09:15:00,
2013-01-14 04:21:00,60.7,59.0,30.24,SSW,198,0.0,6.0,94,0.00,,,0.00,VWS V14.01,2013-01-14 09:21:00,
2013-01-14 04:26:00,60.8,59.1,30.24,SSW,204,0.0,6.0,94,0.00,,,0.00,VWS V14.01,2013-01-14 09:26:00,
2013-01-14 04:30:00,60.8,59.1,30.24,SSW,197,0.0,6.0,94,0.00,,,0.00,VWS V14.01,2013-01-14 09:30:00,
2013-01-14 04:32:00,60.8,59.1,30.24,SSW,213,2.0,6.0,94,0.00,,,0.00,VWS V14.01,2013-01-14 09:32:00,
2013-01-14 04:38:00,60.9,59.2,30.24,NE,54,0.0,1.0,94,0.00,,,0.00,VWS V14.01,2013-01-14 09:38:00,
2013-01-14 04:44:00,61.0,59.3,30.24,SSW,192,0.0,4.0,94,0.00,,,0.00,VWS V14.01,2013-01-14 09:44:00,
2013-01-14 04:50:00,61.0,59.0,30.24,SSW,196,0.0,4.0,93,0.00,,,0.00,VWS V14.01,2013-01-14 09:50:00,
2013-01-14 04:55:00,61.1,59.1,30.24,SW,224,0.0,5.0,93,0.00,,,0.00,VWS V14.01,2013-01-14 09:55:00,
2013-01-14 05:00:00,61.2,59.2,30.24,SW,226,0.0,5.0,93,0.00,,,0.00,VWS V14.01,2013-01-14 10:00:00,
2013-01-14 05:01:00,61.2,59.2,30.24,SW,226,0.0,5.0,93,0.00,,,0.00,VWS V14.01,2013-01-14 10:01:00,
2013-01-14 05:07:00,61.2,59.2,30.24,SW,226,0.0,0.0,93,0.00,,,0.00,VWS V14.01,2013-01-14 10:07:00,
2013-01-14 05:13:00,61.1,59.1,30.24,SW,225,0.0,3.0,93,0.00,,,0.00,VWS V14.01,2013-01-14 10:13:00,
2013-01-14 05:18:00,61.2,59.2,30.24,SW,217,0.0,3.0,93,0.00,,,0.00,VWS V14.01,2013-01-14 10:18:00,
2013-01-14 05:24:00,61.2,59.2,30.24,WNW,288,0.0,5.0,93,0.00,,,0.00,VWS V14.01,2013-01-14 10:24:00,
2013-01-14 05:30:00,61.2,59.2,30.24,West,265,0.0,5.0,93,0.00,,,0.00,VWS V14.01,2013-01-14 10:30:00,
2013-01-14 05:36:00,61.2,59.2,30.23,West,265,0.0,0.0,93,0.00,,,0.00,VWS V14.01,2013-01-14 10:36:00,
2013-01-14 05:42:00,61.2,59.2,30.24,SSW,209,0.0,4.0,93,0.00,,,0.00,VWS V14.01,2013-01-14 10:42:00,
2013-01-14 05:48:00,61.2,59.2,30.24,SSW,212,0.0,4.0,93,0.00,,,0.00,VWS V14.01,2013-01-14 10:48:00,
2013-01-14 05:53:00,61.2,59.2,30.24,SSW,213,0.0,4.0,93,0.00,,,0.00,VWS V14.01,2013-01-14 10:53:00,
2013-01-14 05:59:00,61.1,58.8,30.24,SSW,213,0.0,4.0,92,0.00,,,0.00,VWS V14.01,2013-01-14 10:59:00,
2013-01-14 06:00:00,61.1,59.1,30.24,SSW,212,2.0,4.0,93,0.00,,,0.00,VWS V14.01,2013-01-14 11:00:00,
2013-01-14 06:04:00,61.1,59.1,30.24,SSW,212,2.0,4.0,93,0.00,,,0.00,VWS V14.01,2013-01-14 11:04:00,
2013-01-14 06:10:00,61.2,59.2,30.24,SSW,209,0.0,4.0,93,0.00,,,0.00,VWS V14.01,2013-01-14 11:10:00,
2013-01-14 06:15:00,61.2,59.2,30.24,SSW,210,0.0,4.0,93,0.00,,,0.00,VWS V14.01,2013-01-14 11:15:00,
2013-01-14 06:21:00,61.2,58.9,30.25,SSW,211,0.0,4.0,92,0.00,,,0.00,VWS V14.01,2013-01-14 11:21:00,
2013-01-14 06:27:00,61.2,58.9,30.25,SSW,210,0.0,4.0,92,0.00,,,0.00,VWS V14.01,2013-01-14 11:27:00,
2013-01-14 06:30:00,61.2,58.9,30.25,SW,230,0.0,5.0,92,0.00,,,0.00,VWS V14.01,2013-01-14 11:30:00,
2013-01-14 06:33:00,61.2,58.9,30.25,SW,231,2.0,5.0,92,0.00,,,0.00,VWS V14.01,2013-01-14 11:33:00,
2013-01-14 06:39:00,61.2,58.9,30.25,SW,230,0.0,4.0,92,0.00,,,0.00,VWS V14.01,2013-01-14 11:39:00,
2013-01-14 06:45:00,61.2,58.9,30.24,SW,233,0.0,4.0,92,0.00,,,0.00,VWS V14.01,2013-01-14 11:45:00,
2013-01-14 06:51:00,61.1,58.8,30.25,SW,234,0.0,4.0,92,0.00,,,0.00,VWS V14.01,2013-01-14 11:51:00,
2013-01-14 06:56:00,61.1,58.8,30.25,WNW,284,0.0,4.0,92,0.00,,,0.00,VWS V14.01,2013-01-14 11:56:00,
2013-01-14 07:00:00,61.0,58.7,30.25,WNW,282,0.0,4.0,92,0.00,,,0.00,VWS V14.01,2013-01-14 12:00:00,
2013-01-14 07:02:00,61.0,58.7,30.25,WNW,284,0.0,4.0,92,0.00,,,0.00,VWS V14.01,2013-01-14 12:02:00,
2013-01-14 07:08:00,60.9,58.6,30.25,WNW,282,0.0,0.0,92,0.00,,,0.00,VWS V14.01,2013-01-14 12:08:00,
2013-01-14 07:14:00,60.8,58.5,30.25,West,281,0.0,1.0,92,0.00,,,0.00,VWS V14.01,2013-01-14 12:14:00,
2013-01-14 07:20:00,60.8,58.5,30.25,West,281,0.0,1.0,92,0.00,,,0.00,VWS V14.01,2013-01-14 12:20:00,
2013-01-14 07:25:00,60.6,58.3,30.25,West,281,0.0,1.0,92,0.00,,,0.00,VWS V14.01,2013-01-14 12:25:00,
2013-01-14 07:30:00,60.5,58.5,30.26,SSW,205,0.0,3.0,93,0.00,,,0.00,VWS V14.01,2013-01-14 12:30:00,
2013-01-14 07:31:00,60.5,58.5,30.26,SSW,205,0.0,3.0,93,0.00,,,0.00,VWS V14.01,2013-01-14 12:31:00,
2013-01-14 07:37:00,60.4,58.4,30.26,SSW,205,0.0,0.0,93,0.00,,,0.00,VWS V14.01,2013-01-14 12:37:00,
2013-01-14 07:43:00,60.4,58.4,30.26,SSW,209,0.0,1.0,93,0.00,,,0.00,VWS V14.01,2013-01-14 12:43:00,
2013-01-14 07:48:00,60.3,58.3,30.27,SSW,209,0.0,1.0,93,0.00,,,0.00,VWS V14.01,2013-01-14 12:48:00,
2013-01-14 07:54:00,60.3,58.3,30.26,SSW,209,0.0,1.0,93,0.00,,,0.00,VWS V14.01,2013-01-14 12:54:00,
2013-01-14 08:00:00,60.2,58.2,30.26,South,172,3.0,4.0,93,0.00,,,0.00,VWS V14.01,2013-01-14 13:00:00,
2013-01-14 08:06:00,60.3,58.3,30.26,SSW,199,0.0,2.0,93,0.00,,,0.00,VWS V14.01,2013-01-14 13:06:00,
2013-01-14 08:12:00,60.3,58.6,30.27,SSW,210,0.0,2.0,94,0.00,,,0.00,VWS V14.01,2013-01-14 13:12:00,
2013-01-14 08:17:00,60.4,58.7,30.27,SSW,210,0.0,2.0,94,0.00,,,0.00,VWS V14.01,2013-01-14 13:17:00,
2013-01-14 08:23:00,60.5,58.8,30.27,SSW,209,1.0,2.0,94,0.00,,,0.00,VWS V14.01,2013-01-14 13:23:00,
2013-01-14 08:29:00,60.6,58.9,30.27,SSW,209,0.0,3.0,94,0.00,,,0.00,VWS V14.01,2013-01-14 13:29:00,
2013-01-14 08:30:00,60.6,58.9,30.28,West,275,3.0,3.0,94,0.00,,,0.00,VWS V14.01,2013-01-14 13:30:00,
2013-01-14 08:34:00,60.6,58.9,30.28,West,275,3.0,3.0,94,0.00,,,0.00,VWS V14.01,2013-01-14 13:34:00,
2013-01-14 08:40:00,60.7,59.0,30.28,WSW,257,0.0,4.0,94,0.00,,,0.00,VWS V14.01,2013-01-14 13:40:00,
2013-01-14 08:45:00,60.7,58.7,30.28,SSW,205,3.0,5.0,93,0.00,,,0.00,VWS V14.01,2013-01-14 13:45:00,
2013-01-14 08:51:00,60.8,58.8,30.28,SSW,205,0.0,5.0,93,0.00,,,0.00,VWS V14.01,2013-01-14 13:51:00,
2013-01-14 08:57:00,60.9,58.9,30.28,SSW,205,0.0,5.0,93,0.00,,,0.00,VWS V14.01,2013-01-14 13:57:00,
2013-01-14 09:00:00,61.0,59.0,30.28,SW,225,0.0,5.0,93,0.00,,,0.00,VWS V14.01,2013-01-14 14:00:00,
2013-01-14 09:03:00,60.9,58.9,30.28,SW,225,0.0,5.0,93,0.00,,,0.00,VWS V14.01,2013-01-14 14:03:00,
2013-01-14 09:09:00,61.1,59.1,30.28,West,275,0.0,2.0,93,0.00,,,0.00,VWS V14.01,2013-01-14 14:09:00,
2013-01-14 09:15:00,61.3,59.0,30.28,SW,230,0.0,2.0,92,0.00,,,0.00,VWS V14.01,2013-01-14 14:15:00,
2013-01-14 09:20:00,61.5,59.2,30.28,SSW,202,2.0,5.0,92,0.00,,,0.00,VWS V14.01,2013-01-14 14:20:00,
2013-01-14 09:26:00,61.8,59.2,30.29,WSW,244,0.0,5.0,91,0.00,,,0.00,VWS V14.01,2013-01-14 14:26:00,
2013-01-14 09:30:00,62.0,59.3,30.29,SW,219,3.0,6.0,91,0.00,,,0.00,VWS V14.01,2013-01-14 14:30:00,
2013-01-14 09:32:00,62.0,59.3,30.29,SSW,206,0.0,6.0,91,0.00,,,0.00,VWS V14.01,2013-01-14 14:32:00,
2013-01-14 09:38:00,62.1,59.1,30.29,SW,221,0.0,4.0,90,0.00,,,0.00,VWS V14.01,2013-01-14 14:38:00,
2013-01-14 09:44:00,62.2,59.2,30.30,SW,232,0.0,4.0,90,0.01,,,0.01,VWS V14.01,2013-01-14 14:44:00,
2013-01-14 09:49:00,62.3,59.3,30.29,SW,232,0.0,4.0,90,0.01,,,0.01,VWS V14.01,2013-01-14 14:49:00,
2013-01-14 09:55:00,62.2,59.5,30.29,South,184,0.0,4.0,91,0.01,,,0.01,VWS V14.01,2013-01-14 14:55:00,
2013-01-14 10:00:00,62.1,59.5,30.29,SE,145,0.0,4.0,91,0.02,,,0.02,VWS V14.01,2013-01-14 15:00:00,
2013-01-14 10:01:00,62.1,59.5,30.29,SW,232,1.0,4.0,91,0.01,,,0.01,VWS V14.01,2013-01-14 15:01:00,
2013-01-14 10:07:00,62.0,59.3,30.29,South,182,0.0,1.0,91,0.02,,,0.02,VWS V14.01,2013-01-14 15:07:00,
2013-01-14 10:12:00,61.9,59.2,30.29,South,179,0.0,4.0,91,0.04,,,0.04,VWS V14.01,2013-01-14 15:12:00,
2013-01-14 10:18:00,61.8,59.5,30.30,South,180,0.0,4.0,92,0.07,,,0.07,VWS V14.01,2013-01-14 15:18:00,
2013-01-14 10:24:00,61.6,59.3,30.29,SSW,199,0.0,4.0,92,0.11,,,0.11,VWS V14.01,2013-01-14 15:24:00,
2013-01-14 10:30:00,61.5,59.5,30.29,SSW,198,0.0,4.0,93,0.13,,,0.13,VWS V14.01,2013-01-14 15:30:00,
2013-01-14 10:36:00,61.6,59.6,30.29,South,182,0.0,0.0,93,0.13,,,0.13,VWS V14.01,2013-01-14 15:36:00,
2013-01-14 10:41:00,61.6,59.9,30.29,SSW,195,0.0,2.0,94,0.14,,,0.14,VWS V14.01,2013-01-14 15:41:00,
2013-01-14 10:47:00,61.6,59.9,30.29,SSW,198,0.0,2.0,94,0.14,,,0.14,VWS V14.01,2013-01-14 15:47:00,
2013-01-14 10:53:00,61.6,59.9,30.28,South,169,0.0,3.0,94,0.14,,,0.14,VWS V14.01,2013-01-14 15:53:00,
2013-01-14 10:59:00,61.7,60.0,30.28,WSW,240,0.0,5.0,94,0.14,,,0.14,VWS V14.01,2013-01-14 15:59:00,
2013-01-14 11:00:00,61.7,60.0,30.28,WSW,240,0.0,5.0,94,0.14,,,0.14,VWS V14.01,2013-01-14 16:00:00,
2013-01-14 11:04:00,61.7,60.0,30.28,WSW,240,0.0,5.0,94,0.14,,,0.14,VWS V14.01,2013-01-14 16:04:00,
2013-01-14 11:10:00,61.8,60.4,30.27,SSW,195,0.0,3.0,95,0.12,,,0.14,VWS V14.01,2013-01-14 16:10:00,
2013-01-14 11:16:00,62.1,60.7,30.27,SSW,197,0.0,3.0,95,0.12,,,0.14,VWS V14.01,2013-01-14 16:16:00,
2013-01-14 11:22:00,62.4,61.0,30.26,SSW,204,0.0,3.0,95,0.12,,,0.14,VWS V14.01,2013-01-14 16:22:00,
2013-01-14 11:27:00,62.4,61.0,30.26,SSW,205,0.0,3.0,95,0.12,,,0.14,VWS V14.01,2013-01-14 16:27:00,
2013-01-14 11:30:00,62.5,61.0,30.26,SSW,205,0.0,3.0,95,0.12,,,0.14,VWS V14.01,2013-01-14 16:30:00,
2013-01-14 11:33:00,62.5,61.0,30.26,SSW,205,0.0,3.0,95,0.12,,,0.14,VWS V14.01,2013-01-14 16:33:00,
2013-01-14 11:39:00,62.4,61.0,30.26,SSW,205,0.0,4.0,95,0.01,,,0.14,VWS V14.01,2013-01-14 16:39:00,
2013-01-14 11:45:00,62.4,61.0,30.26,SSE,152,0.0,4.0,95,0.01,,,0.14,VWS V14.01,2013-01-14 16:45:00,
2013-01-14 11:51:00,62.5,61.0,30.26,WSW,248,0.0,4.0,95,0.01,,,0.14,VWS V14.01,2013-01-14 16:51:00,
2013-01-14 11:56:00,62.4,61.0,30.26,WSW,248,0.0,4.0,95,0.01,,,0.14,VWS V14.01,2013-01-14 16:56:00,
2013-01-14 12:00:00,62.3,60.8,30.25,SSW,206,0.0,5.0,95,0.01,,,0.14,VWS V14.01,2013-01-14 17:00:00,
2013-01-14 12:02:00,62.3,60.8,30.25,SSW,206,0.0,4.0,95,0.01,,,0.14,VWS V14.01,2013-01-14 17:02:00,
2013-01-14 12:08:00,62.2,60.8,30.25,SW,214,5.0,6.0,95,0.00,,,0.14,VWS V14.01,2013-01-14 17:08:00,
2013-01-14 12:14:00,62.2,60.8,30.25,SW,214,0.0,6.0,95,0.00,,,0.14,VWS V14.01,2013-01-14 17:14:00,
2013-01-14 12:20:00,62.2,60.8,30.25,SW,214,0.0,6.0,95,0.01,,,0.15,VWS V14.01,2013-01-14 17:20:00,
2013-01-14 12:26:00,62.1,60.7,30.25,SW,215,0.0,6.0,95,0.02,,,0.16,VWS V14.01,2013-01-14 17:26:00,
2013-01-14 12:30:00,61.9,60.5,30.25,SW,216,0.0,6.0,95,0.07,,,0.21,VWS V14.01,2013-01-14 17:30:00,
2013-01-14 12:31:00,62.0,60.6,30.25,SW,216,0.0,6.0,95,0.06,,,0.20,VWS V14.01,2013-01-14 17:31:00,
2013-01-14 12:37:00,61.9,60.5,30.25,SW,216,0.0,0.0,95,0.07,,,0.21,VWS V14.01,2013-01-14 17:37:00,
2013-01-14 12:43:00,61.9,60.5,30.25,SW,216,0.0,2.0,95,0.09,,,0.23,VWS V14.01,2013-01-14 17:43:00,
2013-01-14 12:49:00,61.9,60.5,30.24,SW,215,0.0,3.0,95,0.12,,,0.26,VWS V14.01,2013-01-14 17:49:00,
2013-01-14 12:55:00,61.9,60.5,30.24,SW,214,0.0,3.0,95,0.13,,,0.27,VWS V14.01,2013-01-14 17:55:00,
2013-01-14 13:00:00,61.9,60.8,30.24,SW,215,0.0,4.0,96,0.15,,,0.29,VWS V14.01,2013-01-14 18:00:00,
2013-01-14 13:01:00,61.9,60.5,30.24,SW,215,0.0,4.0,95,0.14,,,0.28,VWS V14.01,2013-01-14 18:01:00,
2013-01-14 13:06:00,61.9,60.8,30.24,SW,215,1.0,3.0,96,0.15,,,0.29,VWS V14.01,2013-01-14 18:06:00,
2013-01-14 13:12:00,62.0,60.8,30.24,SW,224,1.0,3.0,96,0.16,,,0.30,VWS V14.01,2013-01-14 18:12:00,
2013-01-14 13:18:00,62.1,61.0,30.24,SW,223,0.0,3.0,96,0.16,,,0.30,VWS V14.01,2013-01-14 18:18:00,
2013-01-14 13:24:00,62.2,61.0,30.24,SW,224,0.0,3.0,96,0.16,,,0.30,VWS V14.01,2013-01-14 18:24:00,
2013-01-14 13:30:00,62.2,61.0,30.24,SW,223,0.0,3.0,96,0.16,,,0.30,VWS V14.01,2013-01-14 18:30:00,
2013-01-14 13:36:00,62.3,61.2,30.24,SW,224,0.0,0.0,96,0.10,,,0.31,VWS V14.01,2013-01-14 18:36:00,
2013-01-14 13:41:00,62.4,61.2,30.24,SW,224,0.0,1.0,96,0.10,,,0.31,VWS V14.01,2013-01-14 18:41:00,
2013-01-14 13:47:00,62.5,61.6,30.23,SW,225,0.0,2.0,97,0.10,,,0.31,VWS V14.01,2013-01-14 18:47:00,
2013-01-14 13:53:00,62.7,61.8,30.23,SW,225,0.0,2.0,97,0.10,,,0.31,VWS V14.01,2013-01-14 18:53:00,
2013-01-14 13:59:00,62.7,61.8,30.23,South,181,0.0,3.0,97,0.10,,,0.31,VWS V14.01,2013-01-14 18:59:00,
2013-01-14 14:00:00,62.8,61.9,30.23,South,182,0.0,3.0,97,0.10,,,0.31,VWS V14.01,2013-01-14 19:00:00,
2013-01-14 14:04:00,62.8,61.9,30.23,South,182,1.0,3.0,97,0.10,,,0.31,VWS V14.01,2013-01-14 19:04:00,
2013-01-14 14:10:00,62.8,61.9,30.23,South,182,0.0,1.0,97,0.02,,,0.31,VWS V14.01,2013-01-14 19:10:00,
2013-01-14 14:16:00,62.9,62.0,30.24,South,182,0.0,1.0,97,0.03,,,0.32,VWS V14.01,2013-01-14 19:16:00,
2013-01-14 14:22:00,62.8,61.9,30.23,South,186,1.0,3.0,97,0.03,,,0.32,VWS V14.01,2013-01-14 19:22:00,
2013-01-14 14:28:00,62.8,61.9,30.24,South,186,0.0,3.0,97,0.03,,,0.32,VWS V14.01,2013-01-14 19:28:00,
2013-01-14 14:30:00,62.8,61.9,30.24,South,186,0.0,3.0,97,0.03,,,0.32,VWS V14.01,2013-01-14 19:30:00,
2013-01-14 14:33:00,62.8,61.9,30.24,South,186,0.0,3.0,97,0.03,,,0.32,VWS V14.01,2013-01-14 19:33:00,
2013-01-14 14:39:00,62.9,62.0,30.24,South,186,0.0,0.0,97,0.01,,,0.32,VWS V14.01,2013-01-14 19:39:00,
2013-01-14 14:45:00,62.9,62.0,30.25,South,186,0.0,1.0,97,0.01,,,0.32,VWS V14.01,2013-01-14 19:45:00,
2013-01-14 14:51:00,62.9,62.0,30.24,South,186,0.0,2.0,97,0.01,,,0.32,VWS V14.01,2013-01-14 19:51:00,
2013-01-14 14:56:00,62.9,62.0,30.25,South,186,0.0,3.0,97,0.01,,,0.32,VWS V14.01,2013-01-14 19:56:00,
2013-01-14 15:00:00,62.8,61.9,30.25,South,186,0.0,3.0,97,0.01,,,0.32,VWS V14.01,2013-01-14 20:00:00,
2013-01-14 15:02:00,62.9,62.0,30.25,South,186,0.0,3.0,97,0.01,,,0.32,VWS V14.01,2013-01-14 20:02:00,
2013-01-14 15:08:00,62.8,61.9,30.25,South,186,0.0,0.0,97,0.01,,,0.32,VWS V14.01,2013-01-14 20:08:00,
2013-01-14 15:13:00,62.8,61.9,30.25,South,186,0.0,0.0,97,0.01,,,0.32,VWS V14.01,2013-01-14 20:13:00,
2013-01-14 15:19:00,62.9,62.0,30.25,South,186,0.0,2.0,97,0.02,,,0.33,VWS V14.01,2013-01-14 20:19:00,
2013-01-14 15:25:00,62.9,62.0,30.25,South,186,0.0,2.0,97,0.03,,,0.34,VWS V14.01,2013-01-14 20:25:00,
2013-01-14 15:30:00,62.9,62.0,30.25,South,187,0.0,2.0,97,0.04,,,0.35,VWS V14.01,2013-01-14 20:30:00,
2013-01-14 15:31:00,62.9,62.0,30.25,South,187,0.0,2.0,97,0.03,,,0.34,VWS V14.01,2013-01-14 20:31:00,
2013-01-14 15:37:00,62.9,62.0,30.26,South,187,0.0,2.0,97,0.03,,,0.35,VWS V14.01,2013-01-14 20:37:00,
2013-01-14 15:43:00,63.0,62.1,30.26,SSW,192,0.0,3.0,97,0.03,,,0.35,VWS V14.01,2013-01-14 20:43:00,
2013-01-14 15:48:00,62.9,62.0,30.27,SSW,192,0.0,3.0,97,0.03,,,0.35,VWS V14.01,2013-01-14 20:48:00,
2013-01-14 15:54:00,62.9,62.0,30.27,SSW,192,0.0,3.0,97,0.03,,,0.35,VWS V14.01,2013-01-14 20:54:00,
2013-01-14 16:00:00,63.0,62.1,30.27,SSW,192,0.0,3.0,97,0.03,,,0.35,VWS V14.01,2013-01-14 21:00:00,
2013-01-14 16:06:00,63.0,62.1,30.27,SSW,192,0.0,0.0,97,0.03,,,0.35,VWS V14.01,2013-01-14 21:06:00,
2013-01-14 16:11:00,62.9,62.0,30.27,SSW,192,0.0,0.0,97,0.03,,,0.35,VWS V14.01,2013-01-14 21:11:00,
2013-01-14 16:17:00,62.9,62.0,30.28,SSW,192,0.0,2.0,97,0.03,,,0.35,VWS V14.01,2013-01-14 21:17:00,
2013-01-14 16:23:00,62.9,62.0,30.28,SSW,192,0.0,3.0,97,0.03,,,0.35,VWS V14.01,2013-01-14 21:23:00,
2013-01-14 16:29:00,62.8,61.9,30.28,SSW,192,0.0,3.0,97,0.03,,,0.35,VWS V14.01,2013-01-14 21:29:00,
2013-01-14 16:30:00,62.8,61.9,30.28,SSW,192,0.0,3.0,97,0.03,,,0.35,VWS V14.01,2013-01-14 21:30:00,
2013-01-14 16:34:00,62.8,61.9,30.28,SSW,192,0.0,3.0,97,0.03,,,0.35,VWS V14.01,2013-01-14 21:34:00,
2013-01-14 16:40:00,62.7,61.8,30.28,SSW,192,0.0,1.0,97,0.00,,,0.35,VWS V14.01,2013-01-14 21:40:00,
2013-01-14 16:46:00,62.7,61.8,30.28,SSW,192,0.0,1.0,97,0.00,,,0.35,VWS V14.01,2013-01-14 21:46:00,
2013-01-14 16:52:00,62.6,61.7,30.28,SSW,192,0.0,1.0,97,0.00,,,0.35,VWS V14.01,2013-01-14 21:52:00,
2013-01-14 16:58:00,62.6,61.7,30.28,SSW,192,0.0,1.0,97,0.00,,,0.35,VWS V14.01,2013-01-14 21:58:00,
2013-01-14 17:00:00,62.5,61.6,30.28,SSW,192,0.0,1.0,97,0.00,,,0.35,VWS V14.01,2013-01-14 22:00:00,
2013-01-14 17:04:00,62.6,61.7,30.28,SSW,192,0.0,1.0,97,0.00,,,0.35,VWS V14.01,2013-01-14 22:04:00,
2013-01-14 17:09:00,62.5,61.6,30.28,SSW,192,0.0,0.0,97,0.00,,,0.35,VWS V14.01,2013-01-14 22:09:00,
2013-01-14 17:15:00,62.5,61.6,30.28,SSW,192,0.0,0.0,97,0.00,,,0.35,VWS V14.01,2013-01-14 22:15:00,
2013-01-14 17:21:00,62.4,61.5,30.28,SSW,192,0.0,0.0,97,0.00,,,0.35,VWS V14.01,2013-01-14 22:21:00,
2013-01-14 17:27:00,62.3,61.4,30.28,SSW,192,0.0,0.0,97,0.00,,,0.35,VWS V14.01,2013-01-14 22:27:00,
2013-01-14 17:30:00,62.2,61.3,30.28,SSW,192,0.0,0.0,97,0.00,,,0.35,VWS V14.01,2013-01-14 22:30:00,
2013-01-14 17:32:00,62.2,61.3,30.28,SSW,192,0.0,0.0,97,0.00,,,0.35,VWS V14.01,2013-01-14 22:32:00,
2013-01-14 17:38:00,62.1,61.2,30.28,SSW,192,0.0,0.0,97,0.00,,,0.35,VWS V14.01,2013-01-14 22:38:00,
2013-01-14 17:44:00,62.0,61.1,30.28,SSW,192,0.0,0.0,97,0.00,,,0.35,VWS V14.01,2013-01-14 22:44:00,
2013-01-14 17:50:00,61.9,61.0,30.28,SSW,192,0.0,0.0,97,0.00,,,0.35,VWS V14.01,2013-01-14 22:50:00,
2013-01-14 17:56:00,61.8,60.9,30.28,SSW,192,0.0,0.0,97,0.00,,,0.35,VWS V14.01,2013-01-14 22:56:00,
2013-01-14 18:00:00,61.6,60.7,30.28,SSW,192,0.0,0.0,97,0.00,,,0.35,VWS V14.01,2013-01-14 23:00:00,
2013-01-14 18:02:00,61.6,60.7,30.28,SSW,192,0.0,0.0,97,0.00,,,0.35,VWS V14.01,2013-01-14 23:02:00,
2013-01-14 18:08:00,61.5,60.6,30.28,SSW,192,0.0,0.0,97,0.00,,,0.35,VWS V14.01,2013-01-14 23:08:00,
2013-01-14 18:13:00,61.5,60.6,30.27,SSW,192,0.0,0.0,97,0.00,,,0.35,VWS V14.01,2013-01-14 23:13:00,
2013-01-14 18:19:00,61.4,60.5,30.28,SSW,192,0.0,0.0,97,0.00,,,0.35,VWS V14.01,2013-01-14 23:19:00,
2013-01-14 18:25:00,61.3,60.4,30.27,SSW,192,0.0,0.0,97,0.00,,,0.35,VWS V14.01,2013-01-14 23:25:00,
2013-01-14 18:30:00,61.2,60.3,30.28,SSW,192,0.0,0.0,97,0.00,,,0.35,VWS V14.01,2013-01-14 23:30:00,
2013-01-14 18:31:00,61.3,60.4,30.28,SSW,192,0.0,0.0,97,0.00,,,0.35,VWS V14.01,2013-01-14 23:31:00,
2013-01-14 18:36:00,61.2,60.3,30.27,SSW,192,0.0,0.0,97,0.00,,,0.35,VWS V14.01,2013-01-14 23:36:00,
2013-01-14 18:42:00,61.1,60.2,30.28,SSW,192,0.0,0.0,97,0.00,,,0.35,VWS V14.01,2013-01-14 23:42:00,
2013-01-14 18:48:00,61.0,60.2,30.28,SSW,192,0.0,0.0,97,0.02,,,0.37,VWS V14.01,2013-01-14 23:48:00,
2013-01-14 18:54:00,61.0,60.2,30.28,SSW,192,0.0,0.0,97,0.03,,,0.38,VWS V14.01,2013-01-14 23:54:00,
2013-01-14 19:00:00,60.9,60.0,30.28,SSW,192,0.0,0.0,97,0.03,,,0.38,VWS V14.01,2013-01-15 00:00:00,
2013-01-14 19:06:00,60.9,60.0,30.27,SSW,192,0.0,0.0,97,0.03,,,0.38,VWS V14.01,2013-01-15 00:06:00,
2013-01-14 19:11:00,60.9,60.0,30.28,SSW,192,0.0,0.0,97,0.03,,,0.38,VWS V14.01,2013-01-15 00:11:00,
2013-01-14 19:17:00,60.9,60.0,30.28,SSW,192,0.0,0.0,97,0.03,,,0.38,VWS V14.01,2013-01-15 00:17:00,
2013-01-14 19:23:00,60.9,60.0,30.27,SSW,192,0.0,0.0,97,0.03,,,0.38,VWS V14.01,2013-01-15 00:23:00,
2013-01-14 19:29:00,60.9,60.0,30.27,SSW,192,0.0,0.0,97,0.03,,,0.38,VWS V14.01,2013-01-15 00:29:00,
2013-01-14 19:30:00,60.8,60.0,30.27,SSW,192,0.0,0.0,97,0.03,,,0.38,VWS V14.01,2013-01-15 00:30:00,
2013-01-14 19:34:00,60.8,60.0,30.27,SSW,192,0.0,0.0,97,0.03,,,0.38,VWS V14.01,2013-01-15 00:34:00,
2013-01-14 19:40:00,60.8,60.0,30.27,SSW,192,0.0,0.0,97,0.03,,,0.38,VWS V14.01,2013-01-15 00:40:00,
2013-01-14 19:46:00,60.7,59.8,30.27,SSW,192,0.0,0.0,97,0.03,,,0.38,VWS V14.01,2013-01-15 00:46:00,
2013-01-14 19:52:00,60.7,59.8,30.27,SSW,192,0.0,0.0,97,0.03,,,0.38,VWS V14.01,2013-01-15 00:52:00,
2013-01-14 19:57:00,60.7,60.1,30.26,SSW,192,0.0,0.0,98,0.03,,,0.38,VWS V14.01,2013-01-15 00:57:00,
2013-01-14 20:00:00,60.7,60.1,30.26,SSW,192,0.0,0.0,98,0.03,,,0.38,VWS V14.01,2013-01-15 01:00:00,
2013-01-14 20:03:00,60.7,60.1,30.27,SSW,192,0.0,0.0,98,0.03,,,0.38,VWS V14.01,2013-01-15 01:03:00,
2013-01-14 20:09:00,60.7,59.8,30.26,SSW,192,0.0,0.0,97,0.00,,,0.38,VWS V14.01,2013-01-15 01:09:00,
2013-01-14 20:14:00,60.6,59.8,30.26,SSW,192,0.0,0.0,97,0.00,,,0.38,VWS V14.01,2013-01-15 01:14:00,
2013-01-14 20:20:00,60.5,59.7,30.27,SSW,192,0.0,0.0,97,0.00,,,0.38,VWS V14.01,2013-01-15 01:20:00,
2013-01-14 20:26:00,60.5,59.7,30.26,SSW,192,0.0,0.0,97,0.01,,,0.39,VWS V14.01,2013-01-15 01:26:00,
2013-01-14 20:30:00,60.3,59.5,30.27,SSW,192,1.0,2.0,97,0.01,,,0.39,VWS V14.01,2013-01-15 01:30:00,
2013-01-14 20:32:00,60.4,59.5,30.27,SSW,192,0.0,0.0,97,0.01,,,0.39,VWS V14.01,2013-01-15 01:32:00,
2013-01-14 20:38:00,60.2,59.3,30.27,SSW,192,0.0,1.0,97,0.01,,,0.39,VWS V14.01,2013-01-15 01:38:00,
2013-01-14 20:44:00,60.5,59.9,30.27,SSW,192,0.0,2.0,98,0.01,,,0.39,VWS V14.01,2013-01-15 01:44:00,
2013-01-14 20:49:00,60.9,60.3,30.27,SSW,192,0.0,2.0,98,0.01,,,0.39,VWS V14.01,2013-01-15 01:49:00,
2013-01-14 20:55:00,61.3,60.7,30.27,SSW,192,0.0,2.0,98,0.01,,,0.39,VWS V14.01,2013-01-15 01:55:00,
2013-01-14 21:00:00,61.2,60.6,30.28,SSW,192,0.0,2.0,98,0.01,,,0.39,VWS V14.01,2013-01-15 02:00:00,
2013-01-14 21:01:00,61.3,60.7,30.28,SSW,192,0.0,2.0,98,0.01,,,0.39,VWS V14.01,2013-01-15 02:01:00,
2013-01-14 21:06:00,61.3,60.7,30.28,SSW,192,0.0,0.0,98,0.01,,,0.39,VWS V14.01,2013-01-15 02:06:00,
2013-01-14 21:12:00,61.3,60.7,30.27,SSW,192,0.0,3.0,98,0.01,,,0.39,VWS V14.01,2013-01-15 02:12:00,
2013-01-14 21:18:00,61.4,60.8,30.27,South,170,0.0,3.0,98,0.01,,,0.39,VWS V14.01,2013-01-15 02:18:00,
2013-01-14 21:24:00,61.4,60.8,30.27,SSE,148,1.0,3.0,98,0.01,,,0.39,VWS V14.01,2013-01-15 02:24:00,
2013-01-14 21:30:00,61.2,60.6,30.28,SSE,148,0.0,3.0,98,0.01,,,0.39,VWS V14.01,2013-01-15 02:30:00,
2013-01-14 21:36:00,61.2,60.6,30.28,ENE,76,0.0,0.0,98,0.00,,,0.39,VWS V14.01,2013-01-15 02:36:00,
2013-01-14 21:41:00,61.2,60.6,30.28,NE,41,3.0,10.0,98,0.00,,,0.39,VWS V14.01,2013-01-15 02:41:00,
2013-01-14 21:52:00,59.9,59.0,30.28,NNE,15,5.0,10.0,97,0.00,,,0.39,VWS V14.01,2013-01-15 02:52:00,
2013-01-14 21:57:00,59.0,58.2,30.28,NE,45,4.0,10.0,97,0.00,,,0.39,VWS V14.01,2013-01-15 02:57:00,
2013-01-14 22:00:00,57.9,57.1,30.28,NE,37,3.0,10.0,97,0.00,,,0.39,VWS V14.01,2013-01-15 03:00:00,
2013-01-14 22:03:00,58.0,57.2,30.28,NE,55,0.0,10.0,97,0.00,,,0.39,VWS V14.01,2013-01-15 03:03:00,
2013-01-14 22:09:00,57.7,56.9,30.28,NE,53,3.0,5.0,97,0.00,,,0.39,VWS V14.01,2013-01-15 03:09:00,
2013-01-14 22:15:00,57.3,56.5,30.29,NE,51,0.0,7.0,97,0.00,,,0.39,VWS V14.01,2013-01-15 03:15:00,
2013-01-14 22:21:00,57.0,56.2,30.29,NE,55,4.0,10.0,97,0.00,,,0.39,VWS V14.01,2013-01-15 03:21:00,
2013-01-14 22:26:00,56.7,55.9,30.29,South,184,0.0,10.0,97,0.00,,,0.39,VWS V14.01,2013-01-15 03:26:00,
2013-01-14 22:30:00,56.5,55.7,30.28,ENE,71,0.0,10.0,97,0.00,,,0.39,VWS V14.01,2013-01-15 03:30:00,
2013-01-14 22:32:00,56.6,55.8,30.28,NE,40,1.0,10.0,97,0.00,,,0.39,VWS V14.01,2013-01-15 03:32:00,
2013-01-14 22:38:00,56.3,55.5,30.28,ENE,63,0.0,2.0,97,0.00,,,0.39,VWS V14.01,2013-01-15 03:38:00,
2013-01-14 22:44:00,56.1,55.3,30.29,North,5,0.0,6.0,97,0.00,,,0.39,VWS V14.01,2013-01-15 03:44:00,
2013-01-14 22:50:00,55.9,55.1,30.29,North,360,0.0,6.0,97,0.00,,,0.39,VWS V14.01,2013-01-15 03:50:00,
2013-01-14 22:55:00,55.9,55.1,30.28,ENE,71,2.0,6.0,97,0.00,,,0.39,VWS V14.01,2013-01-15 03:55:00,
2013-01-14 23:00:00,55.7,54.9,30.30,NE,49,2.0,6.0,97,0.00,,,0.39,VWS V14.01,2013-01-15 04:00:00,
2013-01-14 23:01:00,55.8,55.0,30.30,NNW,346,0.0,6.0,97,0.00,,,0.39,VWS V14.01,2013-01-15 04:01:00,
2013-01-14 23:07:00,55.7,54.9,30.30,NE,36,0.0,2.0,97,0.00,,,0.39,VWS V14.01,2013-01-15 04:07:00,
2013-01-14 23:13:00,55.6,54.8,30.30,NE,36,0.0,2.0,97,0.00,,,0.39,VWS V14.01,2013-01-15 04:13:00,
2013-01-14 23:19:00,55.5,54.7,30.31,NE,55,3.0,5.0,97,0.00,,,0.39,VWS V14.01,2013-01-15 04:19:00,
2013-01-14 23:24:00,55.4,54.6,30.31,NE,42,1.0,5.0,97,0.00,,,0.39,VWS V14.01,2013-01-15 04:24:00,
2013-01-14 23:30:00,55.2,54.4,30.30,ENE,59,1.0,6.0,97,0.00,,,0.39,VWS V14.01,2013-01-15 04:30:00,
2013-01-14 23:36:00,55.0,54.2,30.30,ENE,68,1.0,7.0,97,0.00,,,0.39,VWS V14.01,2013-01-15 04:36:00,
2013-01-14 23:42:00,54.9,54.1,30.31,NNE,20,2.0,7.0,97,0.00,,,0.39,VWS V14.01,2013-01-15 04:42:00,
2013-01-14 23:48:00,54.6,53.8,30.31,North,9,7.0,11.0,97,0.00,,,0.39,VWS V14.01,2013-01-15 04:48:00,
2013-01-14 23:54:00,54.3,53.5,30.32,NNE,32,5.0,11.0,97,0.00,,,0.39,VWS V14.01,2013-01-15 04:54:00,